Time,TemperatureF,DewpointF,PressureIn,WindDirection,WindDirectionDegrees,WindSpeedMPH,WindSpeedGustMPH,Humidity,HourlyPrecipIn,Conditions,Clouds,dailyrainin,SoftwareType,DateUTC
2013-08-07 00:01:00,58.0,54.0,-100.00,SSW,210,1.0,2.0,87,0.00,,,-99.99,,2013-08-07 04:01:00,
2013-08-07 00:11:00,58.0,54.0,-100.00,South,190,0.0,1.0,87,0.00,,,-99.99,,2013-08-07 04:11:00,
2013-08-07 00:21:00,57.0,54.0,-100.00,SW,225,1.0,2.0,88,0.00,,,-99.99,,2013-08-07 04:21:00,
2013-08-07 01:11:00,56.0,54.0,-100.00,South,185,1.0,1.0,90,0.00,,,-99.99,,2013-08-07 05:11:00,
2013-08-07 02:32:00,55.0,53.0,-100.00,ENE,75,0.0,1.0,93,0.00,,,-99.99,,2013-08-07 06:32:00,
2013-08-07 02:52:00,55.0,53.0,-100.00,East,80,0.0,1.0,93,0.00,,,-99.99,,2013-08-07 06:52:00,
2013-08-07 03:01:00,55.0,53.0,-100.00,West,270,1.0,2.0,93,0.00,,,-99.99,,2013-08-07 07:01:00,
2013-08-07 03:22:00,54.0,53.0,-100.00,WSW,240,0.0,1.0,94,0.00,,,-99.99,,2013-08-07 07:22:00,
2013-08-07 03:33:00,54.0,53.0,-100.00,South,190,0.0,1.0,94,0.00,,,-99.99,,2013-08-07 07:33:00,
2013-08-07 03:43:00,54.0,53.0,-100.00,SSE,155,0.0,1.0,94,0.00,,,-99.99,,2013-08-07 07:43:00,
2013-08-07 04:11:00,54.0,52.0,-100.00,West,260,0.0,2.0,94,0.00,,,-99.99,,2013-08-07 08:11:00,
2013-08-07 04:22:00,54.0,52.0,-100.00,WNW,285,0.0,1.0,94,0.00,,,-99.99,,2013-08-07 08:22:00,
2013-08-07 04:32:00,54.0,52.0,-100.00,South,170,0.0,1.0,94,0.00,,,-99.99,,2013-08-07 08:32:00,
2013-08-07 04:44:00,54.0,53.0,-100.00,West,280,1.0,2.0,95,0.00,,,-99.99,,2013-08-07 08:44:00,
2013-08-07 05:32:00,53.0,52.0,-100.00,ENE,65,1.0,1.0,95,0.00,,,-99.99,,2013-08-07 09:32:00,
2013-08-07 07:22:00,56.0,55.0,-100.00,South,170,0.0,1.0,95,0.00,,,-99.99,,2013-08-07 11:22:00,
2013-08-07 07:32:00,57.0,55.0,-100.00,NNE,30,0.0,1.0,95,0.00,,,-99.99,,2013-08-07 11:32:00,
2013-08-07 07:43:00,58.0,56.0,-100.00,North,0,0.0,1.0,95,0.00,,,-99.99,,2013-08-07 11:43:00,
2013-08-07 07:52:00,58.0,57.0,-100.00,ESE,115,1.0,3.0,95,0.00,,,-99.99,,2013-08-07 11:52:00,
2013-08-07 08:02:00,61.0,59.0,-100.00,South,175,1.0,3.0,93,0.00,,,-99.99,,2013-08-07 12:02:00,
2013-08-07 08:11:00,62.0,59.0,-100.00,SSW,200,1.0,4.0,91,0.00,,,-99.99,,2013-08-07 12:11:00,
2013-08-07 08:33:00,63.0,59.0,-100.00,SE,135,1.0,3.0,86,0.00,,,-99.99,,2013-08-07 12:33:00,
2013-08-07 08:43:00,64.0,59.0,-100.00,South,180,1.0,3.0,82,0.00,,,-99.99,,2013-08-07 12:43:00,
2013-08-07 08:52:00,65.0,59.0,-100.00,South,180,1.0,4.0,80,0.00,,,-99.99,,2013-08-07 12:52:00,
2013-08-07 09:22:00,66.0,59.0,-100.00,South,170,1.0,3.0,76,0.00,,,-99.99,,2013-08-07 13:22:00,
2013-08-07 11:33:00,73.0,58.0,-100.00,South,180,3.0,7.0,60,0.00,,,-99.99,,2013-08-07 15:33:00,
2013-08-07 11:43:00,75.0,58.0,-100.00,South,190,4.0,8.0,56,0.00,,,-99.99,,2013-08-07 15:43:00,
2013-08-07 12:33:00,77.0,54.0,-100.00,SSW,205,2.0,8.0,45,0.00,,,-99.99,,2013-08-07 16:33:00,
2013-08-07 12:43:00,76.0,52.0,-100.00,SSW,200,5.0,10.0,43,0.00,,,-99.99,,2013-08-07 16:43:00,
2013-08-07 13:11:00,77.0,53.0,-100.00,South,190,3.0,9.0,41,0.00,,,-99.99,,2013-08-07 17:11:00,
2013-08-07 13:43:00,79.0,52.0,-100.00,SSW,195,6.0,11.0,39,0.00,,,-99.99,,2013-08-07 17:43:00,
2013-08-07 13:52:00,78.0,53.0,-100.00,South,185,4.0,12.0,40,0.00,,,-99.99,,2013-08-07 17:52:00,
2013-08-07 14:32:00,79.0,51.0,-100.00,SSW,200,5.0,11.0,37,0.00,,,-99.99,,2013-08-07 18:32:00,
2013-08-07 15:32:00,80.0,49.0,-100.00,WSW,245,4.0,11.0,33,0.00,,,-99.99,,2013-08-07 19:32:00,
2013-08-07 15:44:00,80.0,51.0,-100.00,West,260,3.0,12.0,35,0.00,,,-99.99,,2013-08-07 19:44:00,
2013-08-07 15:52:00,80.0,54.0,-100.00,South,190,7.0,11.0,40,0.00,,,-99.99,,2013-08-07 19:52:00,
2013-08-07 16:33:00,80.0,55.0,-100.00,South,190,6.0,11.0,43,0.00,,,-99.99,,2013-08-07 20:33:00,
2013-08-07 16:43:00,79.0,55.0,-100.00,SSW,195,8.0,13.0,43,0.00,,,-99.99,,2013-08-07 20:43:00,
2013-08-07 17:22:00,78.0,54.0,-100.00,SSW,195,9.0,14.0,44,0.00,,,-99.99,,2013-08-07 21:22:00,
2013-08-07 18:01:00,77.0,55.0,-100.00,South,180,5.0,13.0,46,0.00,,,-99.99,,2013-08-07 22:01:00,
2013-08-07 18:12:00,76.0,56.0,-100.00,South,185,3.0,15.0,49,0.00,,,-99.99,,2013-08-07 22:12:00,
2013-08-07 18:22:00,76.0,55.0,-100.00,South,190,6.0,11.0,48,0.00,,,-99.99,,2013-08-07 22:22:00,
2013-08-07 18:32:00,76.0,56.0,-100.00,South,190,4.0,11.0,49,0.00,,,-99.99,,2013-08-07 22:32:00,
2013-08-07 19:01:00,75.0,57.0,-100.00,South,190,4.0,9.0,53,0.00,,,-99.99,,2013-08-07 23:01:00,
2013-08-07 20:32:00,71.0,56.0,-100.00,SSW,195,3.0,6.0,58,0.00,,,-99.99,,2013-08-08 00:32:00,
2013-08-07 20:43:00,71.0,54.0,-100.00,SSW,195,5.0,8.0,55,0.00,,,-99.99,,2013-08-08 00:43:00,
2013-08-07 20:52:00,71.0,53.0,-100.00,SSW,200,4.0,7.0,53,0.00,,,-99.99,,2013-08-08 00:52:00,
2013-08-07 21:02:00,70.0,53.0,-100.00,South,190,4.0,9.0,53,0.00,,,-99.99,,2013-08-08 01:02:00,
2013-08-07 21:22:00,70.0,53.0,-100.00,SSW,195,5.0,9.0,55,0.00,,,-99.99,,2013-08-08 01:22:00,
2013-08-07 21:43:00,69.0,53.0,-100.00,SSW,195,4.0,9.0,57,0.00,,,-99.99,,2013-08-08 01:43:00,
2013-08-07 22:43:00,67.0,55.0,-100.00,South,190,4.0,7.0,64,0.00,,,-99.99,,2013-08-08 02:43:00,
2013-08-07 23:22:00,66.0,56.0,-100.00,West,270,1.0,2.0,70,0.00,,,-99.99,,2013-08-08 03:22:00,
2013-08-07 23:32:00,66.0,56.0,-100.00,SSW,205,1.0,4.0,70,0.00,,,-99.99,,2013-08-08 03:32:00,